Погода в Новослободске

Россия / Калужская область     53°58′07″N   34°49′02″E
темп.,
°C
ветер,
м/с
пор.,
м/с
влажн.,
%
обл.,
%
осадки,
мм/ч
давл.,
гПа
погр.,
м
14 апреля, ср
ср1400:00+12юв3975100 0.0 1019257
03:00+12ююв498079 0.0 1018401
06:00+9ююв379697 0.0 1018183
09:00+11ю368484 0.0 1019466
12:00+14ю456592 0.1 10181195
15:00+14ююв2464100 0.1 1017996
18:00+14вюв2369100 0.0 101776
21:00+11всв1179100 0.1 101710
15 апреля, чт
чт1500:00+10ссв2283100 0.3 101624
03:00+9ссв2387100 0.6 101551
06:00+8всв259096 0.1 101596
09:00+12вюв3671100 0.1 1015349
12:00+10юв1384100 0.6 1015233
15:00+9всв2693100 2.7 1015353
18:00+10вюв379081 0.8 1014495
21:00+8всв2293100 0.8 101433
16 апреля, пт
пт1600:00+8всв389595 0.8 1014271
03:00+7всв3109688 1.0 1015268
06:00+8св41096100 0.0 1015380
09:00+9всв4791100 0.4 1015492
12:00+10в478771 0.9 1016593
15:00+13в4772100 2.3 10161039
18:00+12в4879100 2.6 1016385
21:00+9св249424 3.7 101787
17 апреля, сб
сб1700:00+7всв249728 0.7 101892
03:00+8св389699 0.9 1019175
06:00+7всв269868 0.3 1020179
09:00+9св3792100 0.9 1020464
12:00+10св4792100 0.5 1022719
15:00+12св51081100 0.7 10221021
18:00+12всв6137980 0.7 1021928
21:00+10в41194100 7.4 1023731
18 апреля, вс
вс1800:00+9в3109689 0.6 1024471
03:00+8всв5128593 0.7 1025469
06:00+5всв4118646 0.0 1027306
09:00+9в477411 0.0 1027425
12:00+12в466995 0.0 1028941
15:00+14в574610 0.0 10291624
18:00+12в487012 0.0 1027910
21:00+8всв387957 0.0 1028145